User: anonymous   Login
Location: Sungai Laei
(2.6000°N, 113.7167°E)
Time: 19:48:09
(UTC+00:00)
Language:

APRIZESAT 10 - Orbit

View from above orbital plane
View from above orbital plane
View from above satellite
View from above satellite

Ground track
Ground track

The orbit data is extracted from the following two-line orbital elements,

1 40019U 14033K   24062.38116604  .00000922  00000-0  15895-3 0  9992
2 40019  97.8483 203.9098 0083218  65.9559 295.0328 14.68539335519323
Epoch (UTC): 02 March 2024 09:08:52
Eccentricity: 0.0083218
inclination: 97.8483°
perigee height: 607 km
apogee height: 724 km
right ascension of ascending node: 203.9098°
argument of perigee: 65.9559°
revolutions per day: 14.68539335
mean anomaly at epoch: 295.0328°
orbit number at epoch: 51932

The dashed part of the orbit path shows where the satellite is in the earth's shadow,  

DLR